COSMOS 1448

导读

COSMOS 1448(宇宙1448)是苏联(CIS)于1983年3月30日08:00发射的人造卫星,隶属于苏联“宇宙”系列卫星项目。该系列卫星涵盖军事侦察、空间科学实验等多种任务,这颗卫星在服役期间承担特定空间任务,其入轨也反映了当时苏联在航天领域持续的太空活动能力,退役后长期运行于近地轨道,是冷战时期航天竞争背景下的产物。

基本信息
目录编号:
13949
目录名称:
COSMOS 1448
国际标识:
1983-023A
轨道中心:
EARTH
卫星名称:
COSMOS 1448
卫星全名:
--
卫星状态:
在轨 (已飞行15780 天)
发射日期:
1983-03-30 UTC
国别 :
俄罗斯(独联体) (CIS)
星等 :
--
轨道信息
数据来源 国际轨道数据 AOE轨道数据
星历时间 2026-06-12T15:20:03+0800
12小时前
查看轨道信息
2026-06-08T08:00:00+0800
4天前
查看轨道信息
半长轴 7355.755km 7355.752km
偏心率 0.0030567 0.0031082
轨道倾角 82.957° 82.958°
近地点辐角 135.806° 146.485°
升交点赤经 77.613° 80.802°
平近点角 341.371° 252.410°
近地点 955.133km 954.751km
远地点 1000.103km 1000.479km
周期 104.641分钟 104.641分钟
每日圈数 13.761378 13.761387
详细信息
使用方式:
暂无
2D轨道图
3D轨道图
轨道高度分析图
轨道倾角分析图
轨道综合分析图
查看轨道综合分析图